Regional Weather Roundup
Issued by NWS

Home | Current Version | Previous Version | Text Only | Print | Product List | Glossary On
Versions: 1 2 3 4 5 6 7 8 9 10 11 12 13 14 15 16 17 18 19 20 21 22 23 24 25 26 27 28
000
ASUS44 KBMX 200910
RWRAL

ALABAMA REGIONAL WEATHER ROUNDUP
NATIONAL WEATHER SERVICE BIRMINGHAM AL
400 AM CDT SUN APR 20 2014

NOTE: "FAIR" INDICATES FEW OR NO CLOUDS BELOW 12,000 FEET
WITH NO SIGNIFICANT WEATHER AND/OR OBSTRUCTIONS TO VISIBILITY.

THE REMARK "TC" DENOTES TEMPERATURE IN DEGREES CELSIUS.

ALZ001>011-014-016>018-020-201000-
NORTH ALABAMA

CITY           SKY/WX    TMP DP  RH WIND       PRES   REMARKS
MUSCLE SHOALS  CLEAR     48  44  86 CALM      30.17S
HUNTSVILLE     CLEAR     49  45  86 CALM      30.18R
DECATUR        CLEAR     45  43  93 CALM      30.19R
HALEYVILLE     FAIR      43  43 100 E3        30.20R
GADSDEN        NOT AVBL
$$

ALZ012-013-022-023-030>036-040>044-201000-
WEST CENTRAL ALABAMA

CITY           SKY/WX    TMP DP  RH WIND       PRES   REMARKS
TUSCALOOSA     CLEAR     49  47  93 CALM      30.18R
$$

ALZ015-024>027-033>036-040>044-201000-
CENTRAL ALABAMA

CITY           SKY/WX    TMP DP  RH WIND       PRES   REMARKS
BIRMINGHAM     CLEAR     58  41  53 E8        30.19S
MONTGOMERY     CLOUDY    57  47  69 NE10      30.16R
SHELBY CO ARPT CLEAR     56  45  66 NE3       30.18R
MAXWELL AFB    CLOUDY    62  54  74 NE6       30.16R
GREENVILLE     FAIR      53  47  79 NE6       30.13S
$$

ALZ019-021-028-029-037-038-045>048-201000-
EAST CENTRAL ALABAMA

CITY           SKY/WX    TMP DP  RH WIND       PRES   REMARKS
ANNISTON       CLEAR     53  43  68 NE3       30.19R
ALEXANDER CITY MOCLDY    55  46  70 CALM      30.17S
AUBURN         CLOUDY    52  45  76 NE9       30.18R
$$

ALZ051>064-201000-
SOUTHWEST ALABAMA

CITY           SKY/WX    TMP DP  RH WIND       PRES   REMARKS
MOBILE         CLEAR     57  54  89 NE7       30.12R
BROOKLEY FIELD CLEAR     60  54  80 N6        30.12R
EVERGREEN      CLEAR     56  49  77 NE8       30.13F
$$

ALZ049-050-065>069-201000-
SOUTHEAST ALABAMA

CITY           SKY/WX    TMP DP  RH WIND       PRES   REMARKS
DOTHAN         CLOUDY    54  51  90 NE9       30.14R
OZARK          MOCLDY    53  51  93 N7        30.10S
TROY           CLOUDY    56  49  77 NE7       30.13S
EUFAULA        CLOUDY    56  49  77 NE5       30.12R
$$



USA.gov is the U.S. government's official web portal to all federal, state and local government web resources and services.